Location: Fluertsh�userhof
(48.7537°N, 10.3850°E)
Time: 15:17:18
(UTC+00:00)

Cosmos 1269 Rocket - Pass Details

Date: 18 September 2020
Orbit: 772 x 780 km, 74.1° (Epoch: 24 October)

Event Time Altitude Azimuth Distance (km) Brightness Sun altitude
Rises 19:33:05 0° 339° (NNW) 3,274 8.0 -21.1°
Reaches altitude 10° 19:35:32 10° 344° (NNW) 2,343 7.1 -21.5°
Maximum altitude 19:40:46 55° 62° (ENE) 941 4.2 -22.2°
Enters shadow 19:41:30 50° 93° (E) 989 4.2 -22.4°
